Skip Page Navigation
NASA JPL Caltech
NASA Logo - Jet Propulsion Laboratory + View the NASA Portal
+ Center for Near-Earth Object Studies
JPL Home Earth Solar System Stars & Galaxies Technology
JPL Solar System Dynamics
BODIES ORBITS EPHEMERIDES TOOLS PHYSICAL DATA DISCOVERY FAQ SITE MAP
JPL Small-Body Database Browser
Search: [ help ]  
123205 (2000 UZ27)
Classification: Main-belt Asteroid          SPK-ID: 2123205
Ephemeris | Orbit Diagram | Orbital Elements | Mission Design | Physical Parameters | Discovery Circumstances | Close-Approach Data ]

[ show orbit diagram ]
Orbital Elements at Epoch 2459000.5 (2020-May-31.0) TDB
Reference: JPL 22 (heliocentric ecliptic J2000)
 Element Value Uncertainty (1-sigma)   Units 
e .044816193869978 5.1254e-08  
a 2.731982637478497 2.1329e-08 au
q 2.609545573947847 1.4035e-07 au
i 11.48266493481674 5.8243e-06 deg
node 229.4993849186028 2.2406e-05 deg
peri 169.2483174056435 5.9997e-05 deg
M 101.3326712454055 5.3651e-05 deg
tp 2458536.238874588375
(2019-Feb-21.73887459)
0.00024631 TDB
period 1649.359511538217
4.52
1.9315e-05
5.288e-08
d
yr
n .2182665437593158 2.5561e-09 deg/d
Q 2.854419701009148 2.2285e-08 au
  Orbit Determination Parameters
   # obs. used (total)      594  
   data-arc span      7038 days (19.27 yr)  
   first obs. used      2000-10-25  
   last obs. used      2020-02-01  
   planetary ephem.      DE431  
   SB-pert. ephem.      SB431-N16  
   condition code      0  
   norm. resid. RMS      .56012  
   source      ORB  
   producer      Otto Matic  
   solution date      2020-Feb-24 06:36:47  

Additional Information
 Earth MOID = 1.61869 au 
 Jupiter MOID = 2.37518 au 
 T_jup = 3.323 
[ show covariance matrix ]

Ephemeris | Orbit Diagram | Orbital Elements | Mission Design | Physical Parameters | Discovery Circumstances | Close-Approach Data ]

Physical Parameter Table
Parameter Symbol Value Units Sigma Reference Notes
absolute magnitude H 15.3   n/a MPO325331  

123205 (2000 UZ27)          Discovered 2000-Oct-25 by LINEAR at Socorro
Reference: 20060314/Numbers.arcLast Updated: 2006-03-23

[ show close-approach data ]
Alternate Designations
 2000 UZ27 = 2005 UE271 
Ephemeris | Orbit Diagram | Orbital Elements | Mission Design | Physical Parameters | Discovery Circumstances | Close-Approach Data ]
ABOUT SSD CREDITS/AWARDS PRIVACY/COPYRIGHT GLOSSARY LINKS
FirstGov 2020-Oct-28 04:11 UT
(server date/time)  
NASA Home Page
Site Manager:   Ryan S. Park
Webmaster  Alan B. Chamberlin